Location: Central Coast NSW, Australia
(33.2407°S, 151.4316°E)
Time: 07:09:24
(UTC+10:00)

N. Korean satellite - Pass Details

Date: 25 March 2019
Orbit: 457 x 508 km, 97.2° (Epoch: 19 April)

Event Time Altitude Azimuth Distance (km) Brightness Sun altitude
Rises 19:56:19 0° 191° (SSW) 2,597 10.5 -12.6°
Reaches altitude 10° 19:59:11 10° 216° (SW) 1,692 9.9 -13.2°
Maximum altitude 20:01:10 14° 249° (WSW) 1,431 10.1 -13.6°
Drops below altitude 10° 20:03:08 10° 283° (WNW) 1,662 10.4 -14.1°
Sets 20:05:55 0° 308° (NW) 2,517 10.9 -14.6°
